Location: Miles
(41.4492°N, 81.6087°W)
Time: 08:08:42
(UTC+00:00)

Transit 2A - Pass Details

Date: 13 September 2024
Orbit: 590 x 960 km, 66.7° (Epoch: 09 October)

Event Time Altitude Azimuth Distance (km) Brightness Sun altitude
Rises 00:37:57 0° 213° (SSW) 3,367 9.6 -11.5°
Reaches altitude 10° 00:40:18 10° 215° (SW) 2,487 8.9 -12.0°
Maximum altitude 00:46:08 77° 301° (WNW) 938 6.6 -13.0°
Drops below altitude 10° 00:52:27 10° 28° (NNE) 2,678 8.7 -14.1°
Sets 00:55:05 0° 30° (NNE) 3,643 9.4 -14.6°
